Date String (YYYY-MM-DD hh:mm:ss) UTC,Instrument flags,Ambient pressure (hPa),Sample flow (lpm),Bypass flow (lpm),Sample temperature (°C),Ambient temperature (°C),ASC tube jacket temperature (°C),LED temperature (°C),Box temperature (°C),Sample RH (%),Span deviation,Mass concentration (μg/m³),Mass concentration (μg/m³),Mass concentration (μg/m³)
DateTimeUTC,F1_M11,P_M11,Q1_M11,Q2_M11,T1_M11,T2_M11,T3_M11,T4_M11,T5_M11,U1_M11,ZSPAN_M11,X0_M11,X2_M11,X1_M11
2022-04-27 10:00:00,,0823.3,5.00,0.00,28.7,27.8,00.0,37.7,30.4,06.5,0004.9,0034.32,0012.43,0005.95
2022-04-27 10:01:00,,0823.4,5.01,0.00,28.7,27.8,00.0,37.7,30.4,06.5,0005.8,0033.94,0012.37,0005.98
2022-04-27 10:02:00,,0823.4,4.99,0.00,28.7,27.8,00.0,37.7,30.5,06.5,0006.3,0033.94,0012.38,0006.03
2022-04-27 10:03:00,,0823.5,5.01,0.00,28.7,27.8,00.0,37.7,30.5,06.5,0005.4,0033.76,0012.50,0006.07
2022-04-27 10:04:00,,0823.5,4.99,0.00,28.7,27.8,00.0,37.7,30.4,06.6,0004.5,0033.92,0012.54,0006.08
2022-04-27 10:05:00,,0823.6,5.01,0.00,28.7,27.8,00.0,37.7,30.4,06.8,0004.9,0034.26,0012.50,0006.06
2022-04-27 10:06:00,,0823.5,5.01,0.00,28.6,27.7,00.0,37.7,30.3,06.7,0004.5,0034.52,0012.46,0006.06
2022-04-27 10:07:00,,0823.4,4.99,0.00,28.6,27.7,00.0,37.6,30.3,06.7,0003.5,0035.36,0012.46,0006.03
2022-04-27 10:08:00,,0823.3,5.02,0.00,28.6,27.7,00.0,37.6,30.2,06.6,0002.1,0035.23,0012.56,0006.03
2022-04-27 10:09:00,,0823.3,5.00,0.00,28.5,27.6,00.0,37.6,30.2,06.5,0006.5,0034.53,0012.52,0006.05
2022-04-27 10:10:00,,0823.3,4.99,0.00,28.5,27.6,00.0,37.6,30.2,06.5,0006.9,0034.06,0012.43,0006.04
2022-04-27 10:11:00,,0823.3,5.01,0.00,28.5,27.6,00.0,37.6,30.2,06.6,0005.5,0033.68,0012.33,0006.05
2022-04-27 10:12:00,,0823.4,4.99,0.00,28.5,27.6,00.0,37.6,30.2,06.6,0004.8,0033.67,0012.26,0006.04
2022-04-27 10:13:00,,0823.4,5.01,0.00,28.5,27.6,00.0,37.5,30.2,06.7,0004.3,0032.67,0012.04,0005.99
2022-04-27 10:14:00,,0823.3,5.00,0.00,28.5,27.6,00.0,37.5,30.2,06.7,0004.4,0031.30,0011.96,0005.97
2022-04-27 10:15:00,,0823.3,4.99,0.00,28.5,27.6,00.0,37.5,30.2,06.6,0004.5,0031.53,0011.97,0005.97
2022-04-27 10:16:00,,0823.3,5.01,0.00,28.5,27.7,00.0,37.5,30.2,06.6,0003.5,0031.70,0011.95,0005.99
2022-04-27 10:17:00,,0823.4,5.00,0.00,28.5,27.7,00.0,37.5,30.3,06.6,0002.8,0031.77,0012.04,0006.01
2022-04-27 10:18:00,,0823.4,5.00,0.00,28.5,27.7,00.0,37.5,30.3,06.7,0003.6,0031.53,0012.24,0006.06
2022-04-27 10:19:00,,0823.3,5.00,0.00,28.5,27.7,00.0,37.5,30.3,06.8,0003.4,0031.37,0012.24,0006.04
2022-04-27 10:20:00,,0823.3,4.98,0.00,28.5,27.7,00.0,37.5,30.3,06.7,0003.2,0031.96,0012.39,0006.04
2022-04-27 10:21:00,,0823.4,4.99,0.00,28.5,27.7,00.0,37.5,30.3,06.6,0002.4,0032.64,0012.47,0006.05
2022-04-27 10:22:00,,0823.3,5.03,0.00,28.5,27.7,00.0,37.5,30.3,06.5,0003.2,0033.41,0012.52,0006.04
2022-04-27 10:23:00,,0823.3,4.99,0.00,28.5,27.7,00.0,37.5,30.2,06.6,0003.8,0034.34,0012.58,0006.03
2022-04-27 10:24:00,,0823.3,4.98,0.00,28.5,27.6,00.0,37.5,30.2,06.6,0003.9,0035.15,0012.85,0006.06
2022-04-27 10:25:00,,0823.3,5.02,0.00,28.4,27.6,00.0,37.5,30.1,06.7,0003.9,0035.66,0012.92,0006.06
2022-04-27 10:26:00,,0823.4,4.99,0.00,28.4,27.5,00.0,37.5,30.1,06.7,0003.8,0035.23,0012.84,0006.07
2022-04-27 10:27:00,,0823.3,5.02,0.00,28.4,27.5,00.0,37.5,30.1,06.7,0004.8,0034.70,0012.88,0006.07
2022-04-27 10:28:00,,0823.3,4.99,0.00,28.4,27.5,00.0,37.4,30.1,06.7,0005.6,0034.68,0012.93,0006.06
2022-04-27 10:29:00,,0823.2,5.00,0.00,28.4,27.6,00.0,37.4,30.1,06.7,0005.3,0034.32,0012.87,0006.02
2022-04-27 10:30:00,,0823.2,5.00,0.00,28.4,27.6,00.0,37.4,30.1,06.7,0005.0,0034.24,0012.87,0006.02
2022-04-27 10:31:00,,0823.2,4.99,0.00,28.4,27.6,00.0,37.4,30.2,06.7,0005.1,0034.42,0012.75,0006.02
2022-04-27 10:32:00,,0823.1,5.01,0.00,28.4,27.6,00.0,37.4,30.2,06.7,0005.2,0033.91,0012.68,0006.00
2022-04-27 10:33:00,,0823.1,4.99,0.00,28.4,27.6,00.0,37.4,30.2,06.7,0004.7,0033.26,0012.69,0005.97
2022-04-27 10:34:00,,0823.2,5.01,0.00,28.4,27.6,00.0,37.4,30.2,06.7,0004.1,0033.48,0012.59,0005.94
2022-04-27 10:35:00,,0823.2,5.01,0.00,28.5,27.6,00.0,37.4,30.2,06.6,0003.9,0033.91,0012.45,0005.90
2022-04-27 10:36:00,,0823.2,4.99,0.00,28.5,27.7,00.0,37.4,30.2,06.6,0004.0,0034.28,0012.44,0005.88
2022-04-27 10:37:00,,0823.2,4.99,0.00,28.5,27.6,00.0,37.4,30.2,06.6,0003.6,0034.25,0012.45,0005.85
2022-04-27 10:38:00,,0823.2,5.01,0.00,28.5,27.6,00.0,37.4,30.2,06.6,0003.3,0034.72,0012.51,0005.83
2022-04-27 10:39:00,,0823.3,5.00,0.00,28.5,27.6,00.0,37.4,30.2,06.7,0003.2,0034.46,0012.30,0005.82
2022-04-27 10:40:00,,0823.2,5.00,0.00,28.5,27.6,00.0,37.4,30.2,06.8,0003.0,0033.98,0012.17,0005.80
2022-04-27 10:41:00,,0823.3,4.99,0.00,28.5,27.6,00.0,37.4,30.2,06.7,0002.8,0033.52,0012.07,0005.78
2022-04-27 10:42:00,,0823.3,5.01,0.00,28.4,27.6,00.0,37.4,30.2,06.6,0002.6,0033.83,0012.21,0005.78
2022-04-27 10:43:00,,0823.4,4.99,0.00,28.4,27.6,00.0,37.4,30.2,06.7,0002.1,0033.53,0012.21,0005.77
2022-04-27 10:44:00,,0823.3,5.01,0.00,28.4,27.6,00.0,37.4,30.2,06.6,0002.1,0033.42,0012.22,0005.78
2022-04-27 10:45:00,,0823.4,5.00,0.00,28.4,27.6,00.0,37.4,30.2,06.7,0002.5,0032.08,0012.26,0005.80
2022-04-27 10:46:00,,0823.4,4.99,0.00,28.4,27.6,00.0,37.4,30.2,06.8,0002.4,0030.70,0012.29,0005.81
2022-04-27 10:47:00,,0823.4,5.02,0.00,28.5,27.6,00.0,37.4,30.2,06.7,0002.2,0030.75,0012.34,0005.83
2022-04-27 10:48:00,,0823.4,5.01,0.00,28.5,27.6,00.0,37.4,30.2,07.2,0003.0,0031.99,0012.44,0005.83
2022-04-27 10:49:00,,0823.3,4.99,0.00,28.4,27.6,00.0,37.4,30.2,07.3,0003.3,0031.44,0012.35,0005.82
2022-04-27 10:50:00,,0823.3,5.00,0.00,28.4,27.6,00.0,37.4,30.2,07.2,0001.5,0031.24,0012.42,0005.83
2022-04-27 10:51:00,,0823.3,5.01,0.00,28.4,27.5,00.0,37.4,30.2,07.1,0001.8,0032.07,0012.59,0005.87
2022-04-27 10:52:00,,0823.3,4.99,0.00,28.4,27.5,00.0,37.4,30.1,07.0,0003.3,0032.39,0012.70,0005.88
2022-04-27 10:53:00,,0823.3,5.00,0.00,28.4,27.5,00.0,37.4,30.1,06.8,0002.6,0032.50,0012.66,0005.89
2022-04-27 10:54:00,,0823.4,4.99,0.00,28.4,27.5,00.0,37.4,30.1,06.8,0002.0,0032.92,0012.69,0005.88
2022-04-27 10:55:00,,0823.4,5.00,0.00,28.4,27.5,00.0,37.4,30.1,06.8,0001.8,0032.69,0012.61,0005.86
2022-04-27 10:56:00,,0823.4,4.99,0.00,28.4,27.5,00.0,37.4,30.2,06.8,0001.4,0032.74,0012.57,0005.86
2022-04-27 10:57:00,,0823.4,4.99,0.00,28.4,27.5,00.0,37.4,30.1,06.7,0001.6,0033.51,0012.51,0005.87
2022-04-27 10:58:00,,0823.4,5.01,0.00,28.4,27.5,00.0,37.4,30.2,06.7,0001.6,0033.57,0012.37,0005.87
2022-04-27 10:59:00,,0823.3,5.00,0.00,28.4,27.5,00.0,37.4,30.2,06.6,0001.0,0033.03,0012.31,0005.86
